Flag for India Weather past 2 weeks in Gyanpur, Uttar Pradesh, India

Now
54 °F

Fog.


Feels Like: 53 °F
Forecast: 48 / 67 °F
Wind: 3 mph from West

Location: Varanasi / Babatpur

Current Time: Jan 30, 2015 at 1:05:42 AM

Latest Report: Jan 30, 2015 at 12:00 AM


Visibility: 1 mi

Pressure: 30.12 "Hg

Humidity: 94%

Dew point: 52 °F

Location of GyanpurLocation

Historic Weather in Gyanpur — Graph

°F

Gyanpur temperature yesterday

Maximum temperature yesterday: 68 °F (at 2:00 PM)
Minimum temperature yesterday: 55 °F (at 10:00 PM)
Average temperature yesterday: 61 °F

Past Weeks' High & Low Weather Summary

 TemperatureHumidityPressure
High73 °F (Jan 23, 3:00 PM)100% (Jan 14, 11:00 PM)30.24 "Hg (Jan 14, 11:00 PM)
Low41 °F (Jan 21, 6:00 AM)44% (Jan 22, 3:00 PM)29.89 "Hg (Jan 22, 12:00 AM)
Average57 °F88%30.09 "Hg
* Reported Jan 14 11:00 PM — Jan 29 11:00 PM, Gyanpur, Weather by CustomWeather, © 2014

Note: Actual official high and low records may vary slightly from our data, if they occured in-between our weather recording intervals... More about our weather records

Advertising

Gyanpur weather history for previous 24 hours

 ConditionsComfort  
Time TempWeatherWind HumidityBarometerVisibility
11:00 PM
Jan 29
55 °FFog.3 mph94%30.12 "Hg1 mi
10:00 PM55 °FFog.2 mph100%30.09 "Hg1 mi
8:00 PM57 °FFog.2 mph94%30.07 "Hg1 mi
7:00 PM59 °FFog.3 mph88%30.04 "Hg1 mi
6:00 PM61 °FFog.2 mph88%30.04 "Hg1 mi
5:00 PM66 °FFog.2 mph78%30.04 "Hg1 mi
4:00 PM66 °FFog.2 mph78%30.04 "Hg1 mi
3:00 PM66 °FFog.5 mph78%30.04 "Hg1 mi
2:00 PM68 °FFog.5 mph73%30.04 "Hg1 mi
1:00 PM66 °FFog.5 mph78%30.07 "Hg1 mi
12:00 PM66 °FFog.2 mph78%30.09 "Hg1 mi
11:00 AM66 °FFog.2 mph73%30.09 "Hg1 mi
9:00 AM59 °FFog.5 mph88%30.09 "Hg1 mi
8:00 AM57 °FFog.1 mph94%30.07 "Hg1 mi
7:00 AM57 °FFog.2 mph94%30.04 "Hg1 mi
6:00 AM57 °FFog.No wind94%29.98 "Hg1 mi
5:00 AM57 °FFog.6 mph100%29.98 "Hg1 mi
4:00 AM59 °FThunderstorms. Partly cloudy.3 mph94%29.98 "Hg1 mi
Weather by CustomWeather, © 2014

See weather overviewHow to use our weather pages